www.pogodaiklimat.ru

Погода и климат >> Архив погоды >> Гана >> Такоради


ПОГОДА Такоради

  • Прогноз погоды Такоради
  • Монитор погоды Такоради

АРХИВ ПОГОДЫ Такоради

Время (UTC), дата Ветер
(напр.,м/с)
 
Видим.   Явления Облачность Т
(С)
Тd
(С)
f
(%)
Тe
(С)
Тes
(С)
Комфортность P
(гПа)
Po
(гПа)
Тmin
(С)
Tmax
(С)
R
(мм)
R24
(мм)
S
(см)
21 11.07 штиль 0 12 км 9/1 330 м
[Sc Cs]
+24.9 +23.9 94 +34 +34 очень
душно
1015.0 1014.0
00 12.07 штиль 0 10 км 6/3 330 м
[Sc Ac trans]
+24.7 +23.8 95 +34 +34 очень
душно
1014.5 1013.5
06 12.07 штиль 0 5000 м дымка 6/1 300 м
[Sc Ac trans]
+24.0 +23.7 98 +33 +33 очень
душно
1014.3 1013.3 +23.4
12 12.07 0 н/о
18 12.07 ЮЗ 1 15 км {гроза} 9/9 300 м
[Cb calv Ac cuf]
+27.8 +24.1 80 +39 +39 очень
душно
1013.0 1012.0 +27.8
21 12.07 ЮЗ 1 12 км 8/4 330 м
[Sc Ac trans]
+25.4 +24.4 94 +35 +35 очень
душно
1014.9 1013.9
03 13.07 ЮЗ 2 10 км 8/8 300 м
[Sc]
+22.3 +23.9 100 +30 +30 очень
душно
1013.8 1012.7
09 13.07 ЮЗ 1 8000 м дымка 8/3 330 м
[Cu Sc Ac trans]
+26.1 +24.1 89 +36 +41 очень
душно
1016.4 1015.4
12 13.07 ЮЗ 4 12 км {дождь} 5/3 400 м
[Cu med, cong Ac trans]
+27.8 +24.4 82 +39 +48 очень
душно
1015.7 1014.7 0.0
15 13.07 ЮЗ 5 15 км 3/3 400 м
[Cu med, cong]
+28.3 +24.5 80 +40 +45 очень
душно
1013.8 1012.8
18 13.07 ЮЗ 2 10 км 3/3 330 м
[Cu Sc Ac lent]
+26.0 +23.9 88 +36 +36 очень
душно
1013.7 1012.7 +29.0 0.0
03 14.07 штиль 0 10 км 1/1 330 м
[Sc]
+23.0 +22.3 96 +31 +31 очень
душно
1014.4 1013.3
06 14.07 штиль 0 5000 м дымка {снег} 5/5 330 м
[Sc]
+22.0 +21.5 97 +29 +29 очень
душно
1015.2 1014.1 +21.5 0.0
12 14.07 ЮЗ 4 15 км 1/1 400 м
[Cu med, cong]
+28.1 +23.7 77 +39 +51 опасность
солнечного
удара
1015.5 1014.5
15 14.07 ЮЗ 5 15 км 1/1 420 м
[Cb cap]
+27.6 +23.8 80 +38 +44 очень
душно
1013.0 1012.0
18 14.07 ЮЗ 6 15 км 1/1 400 м
[Cu med, cong]
+26.2 +23.5 85 +36 +36 очень
душно
1012.3 1011.3 +28.7
21 14.07 штиль 0 10 км ясно +24.5 +23.1 92 +33 +33 очень
душно
1014.4 1013.4
03 15.07 штиль 0 10 км 9/0 2000 м
[Ac trans]
+23.6 +22.9 96 +31 +31 очень
душно
1013.0 1012.0
06 15.07 штиль 0 2000 м дымка 6/1 330 м
[Sc Ac trans]
+23.1 +22.6 97 +32 +32 очень
душно
1013.5 1012.4 +22.4
09 15.07 СЗ 1 8000 м дымка 6/3 360 м
[Cu med, cong Ci sp]
+26.0 +24.0 89 +36 +43 очень
душно
1014.5 1013.5
12 15.07 ЮЗ 5 12 км 8/3 420 м
[Cu med, cong Cs]
+28.4 +24.0 77 +39 +46 очень
душно
1013.5 1012.5
15 15.07 ЮЗ 6 15 км 9/1 420 м
[Cu med, cong Ac trans Cs]
+27.5 +24.0 81 +38 +40 очень
душно
1011.4 1010.4
21 15.07 ЮЗ 4 15 км 3/0
[Ci sp]
+25.0 +23.8 93 +34 +34 очень
душно
1012.3 1011.3
06 16.07 штиль 0 7000 м дымка 6/1 300 м
[Sc Ac trans]
+24.1 +23.8 98 +33 +33 очень
душно
1012.6 1011.6 +23.4
09 16.07 ЮЗ 3 10 км 8/4 330 м
[Cu Sc Cs]
+26.7 +24.7 89 +38 +42 очень
душно
1014.6 1013.6
12 16.07 ЮЗ 5 16 км 8/1 420 м
[Cu med, cong Ac trans Cs]
+28.9 +24.9 79 +41 +47 опасность
перегрева
1014.2 1013.2
15 16.07 ЮЗ 5 16 км 8/1 420 м
[Cu med, cong Ac trans]
+27.8 +24.8 84 +40 +42 очень
душно
1012.3 1011.3
18 16.07 ЮЗ 2 16 км 8/3 330 м
[Cu Sc Cs]
+26.7 +24.9 90 +38 +38 очень
душно
1012.8 1011.8 +29.0
21 16.07 ЮЗ 3 15 км 6/1 330 м
[Sc Ci sp]
+25.3 +24.4 95 +35 +35 очень
душно
1014.3 1013.3
09 17.07 ЮЗ 3 10 км 9/4 360 м
[Cu Sc Ac trans]
+26.5 +25.1 92 +38 +41 очень
душно
1017.2 1016.2
12 17.07 ЮЗ 2 15 км 9/5 400 м
[Cu Sc Ac trans]
+27.5 +24.8 85 +39 +44 очень
душно
1016.0 1015.0
15 17.07 ЮЗ 5 15 км 9/5 360 м
[Sc Ac trans]
+27.0 +24.1 84 +37 +39 очень
душно
1013.6 1012.6
18 17.07 ЮЗ 3 15 км 6/3 360 м
[Cu Sc Ac trans]
+26.2 +23.9 87 +36 +36 очень
душно
1013.6 1012.6 +28.0
00 18.07 ЮЗ 2 10 км 6/3 300 м
[Sc Ac trans]
+25.1 +24.2 95 +35 +35 очень
душно
1014.8 1013.8
06 18.07 ЮЗ 1 5000 м дымка 9/5 330 м
[Sc Ac trans]
+24.6 +23.9 96 +34 +34 очень
душно
1014.6 1013.6 +23.8
09 18.07 ЮЗ 1 10 км {дождь} 9/9 360 м
[Cu Sc]
+26.1 +24.9 93 +37 +38 очень
душно
1015.5 1014.5
12 18.07 ЮЗ 4 10 км {дождь, морось} 9/8 360 м
[Cu Sc Ac As]
+26.6 +24.6 89 +38 +39 очень
душно
1014.7 1013.7 0.1
15 18.07 ЮЗ 5 10 км 8/3 400 м
[Cu Sc Ac trans]
+27.8 +24.8 84 +40 +42 очень
душно
1013.0 1012.0
18 18.07 ЮЗ 7 10 км 5/1 330 м
[Sc Ac lent Ci sp]
+25.6 +24.0 91 +35 +35 очень
душно
1012.7 1011.7 +27.8 0.1

 

Местоположение метеостанции Такоради (Гана): широта 4.88 долгота -1.77 высота над уровнем моря 9 м.

В архиве по умолчанию представлена погода Такоради за последнюю неделю. Архивные данные за месяц целиком и за предыдущие месяцы, начиная с января 2011 года, Вы можете получить, выбрав интересующий диапазон дат из раскрывающегося списка и нажав кнопку "Ввод!".


*Определитесь, кто Вы:
робот инопланетянин человек

Внимание! Время в таблицах - всемирное. Для получения местного времени необходимо прибавить поправку, которая равна 1 ч.

Смотрите также архив погоды в соседних городах и на ближайших метеорологических станциях:

Погода в Аксиме (Гана) (51 км)
Погода в Солтпонде (Гана) (85 км)
Погода в Аким Ода (Гана) (146 км)
Погода в Сефви Беквай (Гана) (159 км)
Погода в Адиаке (Кот-д'Ивуар) (176 км)
Погода в Аккра (Гана) (194 км)
Погода в Кумаси (Гана) (206 км)
Погода в Тема (Гана) (213 км)
Погода в Кофоридуа (Гана) (215 км)
Погода в Абетифи (Гана) (229 км)

Пояснения к столбцам:

Ветер - указаны скорость ветра в м/с - средняя за 10 мин, порывы в срок и между сроками (в фигурных скобках) и направление, откуда дует ветер: С - северный, СВ - северо-восточный, В - восточный, ЮВ - юго-восточный, Ю - южный, ЮЗ - юго-западный, З - западный, СЗ - северо-западный.
Видимость - горизонтальная дальность видимости в метрах или километрах. При видимости от 1 до 10 км при отсутствии осадков обычно наблюдается дымка, при ухудшении видимости до 1 км и менее - туман. В сухую погоду видимость может ухудшаться дымом, пылью или мглою.
Явления - указаны атмосферные явления, наблюдавшиеся в срок или в последний час перед сроком; фигурными скобками обозначены явления, наблюдавшиеся между сроками (за 1-3 часа до срока); квадратными скобками обозначены град или гололедные отложения с указанием их диаметра в мм.
Облачность - указаны через наклонную черту общая и нижняя облачность в баллах и высота нижней границы облаков в метрах; квадратными скобками обозначены формы облаков: Ci - перистые, Cs - перисто-слоистые, Cc - перисто-кучевые, Ac - высококучевые, As - высокослоистые, Sc - слоисто-кучевые, Ns - слоисто-дождевые, Cu - кучевые, Cb - кучево-дождевые. Подробнее классификацию облаков см. в Атласе облаков (PDF).
T - Температура воздуха - температура, измеренная на высоте 2 м над землей.
Td - Температура точки росы - температура, при понижении до которой содержащийся в воздухе водяной пар достигнет насыщения.
f - Относительная влажность воздуха - влажноcть воздуха, измеренная на высоте 2 м над землей.
Te - Эффективная температура - температура, которую ощущает одетый по сезону человек в тени. Характеристика душности погоды. При расчете учитывается влияние влажности воздуха и скорости ветра на теплоощущения человека.
Tes - Эффективная температура на солнце - температура, которую ощущает человек, с поправкой на солнечный нагрев. Характеристика знойности погоды. Зависит от высоты солнца над горизонтом, облачности и скорости ветра. Ночью, в пасмурную погоду, а также при ветре 12 м/с и более поправка равна нулю.
P - Атмосферное давление - приведенное к уровню моря атмосферное давление.
Po - Атмосферное давление - измеренное на уровне метеостанции атмосферное давление.
Tmin - Минимальная температура - минимум температуры воздуха на высоте 2 м над землей.
Tmax - Максимальная температура - максимум температуры воздуха на высоте 2 м над землей.
R - Количество осадков - Количество выпавших осадков за период времени, мм. При наведении курсора мыши на число - период времени, за который выпало указанное количество осадков.
R24 - Количество осадков - Количество выпавших осадков за 24 часа, мм.
S - Снежный покров - Высота снежного покрова, см. При наведении курсора мыши на число - состояние снежного покрова и степень покрытия местности в баллах.